Regional Weather Roundup
Issued by NWS Green Bay, WI

Home | Current Version | Previous Version | Graphics & Text | Print | Product List | Glossary Off
Versions: 1 2 3 4 5 6 7 8 9 10 11 12 13 14 15 16 17 18 19 20 21 22 23 24 25 26 27 28 29 30 31 32 33 34 35 36 37 38 39 40 41 42 43 44 45 46 47 48 49 50

000
ASUS43 KGRB 230711
RWRGRB

NORTH-CENTRAL AND NORTHEAST WISCONSIN REGIONAL WEATHER ROUNDUP
NATIONAL WEATHER SERVICE GREEN BAY WI
200 AM CDT SUN APR 23 2017

WIZ005-009-010>012-018-019-230800-
NORTH CENTRAL WISCONSIN

CITY           SKY/WX    TMP DP  RH WIND       PRES   REMARKS
IRONWOOD       CLOUDY    44  38  79 N6        30.06
MANITOWISH WTR PTCLDY    40  37  89 CALM      30.02F
ARBOR VITAE    PTCLDY    49  34  57 SW3       30.02F
EAGLE RIVER    CLOUDY    40  32  73 CALM      30.02F
LAND O LAKES   CLOUDY    38  35  90 CALM      30.04F
RHINELANDER    CLOUDY    48  34  58 SW7       30.04F
PHILLIPS       PTCLDY    50  34  54 SW6       30.03F
ANTIGO         CLEAR     44  33  65 SW8       30.05F
TOMAHAWK       CLOUDY    47  32  56 CALM      30.04F
MERRILL        PTCLDY    46  33  60 W5        30.06F
$$

WIZ013-073-230800-
NORTHEAST WISCONSIN

CITY           SKY/WX    TMP DP  RH WIND       PRES   REMARKS
IRON MOUNTAIN  CLOUDY    47  29  49 NW6       30.01F
MARINETTE      CLEAR     50  33  52 W7        30.05F
OCONTO         CLEAR     47  32  56 SW5       30.05F
$$

WIZ017-030-035>037-045-230800-
CENTRAL WISCONSIN

CITY           SKY/WX    TMP DP  RH WIND       PRES   REMARKS
MEDFORD        CLEAR     48  33  54 SW7       30.06F
WAUSAU         CLEAR     51  32  48 SW8       30.05F
MOSINEE        CLEAR     43  32  65 SW7       30.08F
MARSHFIELD     CLEAR     49  30  48 SW5       30.07F
WISC RAPIDS    CLEAR     39  34  82 SW5       30.10F
STEVENS POINT  CLEAR     37  32  82 CALM      30.09F
WAUPACA        CLEAR     42  33  73 CALM      30.09F
SHAWANO        CLEAR     47  32  55 CALM      30.07F
CLINTONVILLE   CLEAR     46  30  53 SW5       30.08S
WAUTOMA        CLEAR     35  32  88 CALM      30.11F
$$

WIZ038-039-048-051-230800-
FOX VALLEY

CITY           SKY/WX    TMP DP  RH WIND       PRES   REMARKS
NWS GREEN BAY  CLEAR     48  39  71 SW8       30.08F
APPLETON       CLEAR     46  30  53 SW9       30.07F
OSHKOSH        CLEAR     50  31  48 SW7       30.10S
FOND DU LAC    CLEAR     47  32  56 SW8       30.11F
$$

WIZ022-050-052-230800-
EAST CENTRAL WISCONSIN

CITY           SKY/WX    TMP DP  RH WIND       PRES   REMARKS
EPHRAIM        FAIR      52  32  46 W9G16     30.03F
WASHINGTON ISL FAIR      49  33  53 SW15G22   30.02F
STURGEON BAY   CLEAR     52  30  43 SW8       30.06F
MANITOWOC      CLEAR     50  29  44 W10       30.09F
SHEBOYGAN      CLEAR     43  29  57 SW7       30.10F
$$

LMZ563-521-522-541>543-230800-
LAKESHORE

STATION/POSITION TIME  TEMP    WIND        PRES    VSBY  WAVE
                       AIR SEA DIR/SP/G                  HT/PER
                 (UTC) (F)     (DEG/KT/KT) (MB)    (MI)  (FT/S)
SHEBOYGAN LKSHOR 0700   48     250/ 10/ 11 1019.2F
KEWAUNEE LKSHORE 0648   50     260/ 10/ 14 1017.8F
NORTHPORT PIER   0640   55     240/  7/ 16 1016.9S
N MID LAKE BUOY  0650   41 37  200/ 12/ 14 1017.6F         2/ 4
SISTER BAY LKSHO 0636   54     220/ 14/ 18   N/A
CHAMBERS ISLAND  0640   50     190/  7/ 15 1016.9F
MENOMINEE LKSHOR 0648   51     220/ 11/ 13 1016.4F
$$



USA.gov is the U.S. government's official web portal to all federal, state and local government web resources and services.